Regional Weather Roundup
Issued by NWS

Home | Current Version | Previous Version | Text Only | Print | Product List | Glossary On
Versions: 1 2 3 4 5 6 7 8 9 10 11 12 13 14 15 16 17 18 19 20 21 22 23 24 25 26 27 28 29 30 31 32 33 34 35 36 37 38 39 40 41 42 43 44 45 46 47 48 49 50
000
ASUS43 KLMK 142002
RWRKY
KENTUCKY REGIONAL WEATHER ROUNDUP
NATIONAL WEATHER SERVICE LOUISVILLE KY
300 PM EST THU DEC 14 2017

NOTE "FAIR" INDICATES FEW OR NO CLOUDS BELOW 12,000 FEET
WITH NO SIGNIFICANT WEATHER AND/OR OBSTRUCTIONS TO VISIBILITY.

KYZ001>023-026-027-061>063-070>075-142100-
WESTERN AND SOUTH CENTRAL KENTUCKY

CITY           SKY/WX    TMP DP  RH WIND       PRES   REMARKS
PADUCAH        CLOUDY    36  21  54 N7        30.05F WCI  30
HENDERSON      CLOUDY    33  21  61 W6        30.08R WCI  28
OWENSBORO      CLOUDY    34  21  59 NW9       30.06S WCI  27
HOPKINSVILLE   CLOUDY    34  20  57 NW7       30.05R WCI  28
BOWLING GREEN  CLOUDY    38  24  57 SW5       30.03R WCI  34
GLASGOW        NOT AVBL
$$

KYZ024-025-028>034-038-045-046-053-142100-
NORTH CENTRAL KENTUCKY

CITY           SKY/WX    TMP DP  RH WIND       PRES   REMARKS
LOUISVILLE/SDF CLOUDY    36  18  48 N7        30.03S WCI  30
LOUISVILLE/LOU CLOUDY    36  19  50 W8        30.03S WCI  30
FORT KNOX      CLOUDY    33  19  56 N8        30.00S WCI  26
$$

KYZ035>037-039>044-047>052-055>060-089>105-142100-
NORTHEAST KENTUCKY

CITY           SKY/WX    TMP DP  RH WIND       PRES   REMARKS
LEXINGTON      SUNNY     37  16  42 N5        29.99S WCI  33
COVINGTON      PTSUNNY   28  17  63 N10       30.03R WCI  19
FRANKFORT      SUNNY     37  13  37 CALM      29.99S
$$

KYZ054-064>069-076>088-106>120-142100-
SOUTHEAST KENTUCKY

CITY           SKY/WX    TMP DP  RH WIND       PRES   REMARKS
JACKSON        CLOUDY    34  20  56 VRB5      29.95F WCI  30
LONDON         CLOUDY    36  22  56 N3        29.96R
SOMERSET       NOT AVBL
MIDDLESBORO    CLOUDY    39  27  61 N3        29.95S
MONTICELLO     CLOUDY    37  24  59 VRB7      30.00R WCI  32
$$





USA.gov is the U.S. government's official web portal to all federal, state and local government web resources and services.